Date String (YYYY-MM-DD hh:mm:ss) UTC,Instrument flags,absolute air pressure of the measurement (hPa),sample flow rate (lpm),inlet stack bypass flow (lpm),air temperature of the measurement (°C),ambient temperature measured by the external sensor (°C),aerosol sample conditioner tube jacket temperature (°C),OPC LED temperature (°C),internal box temperature (°C),relative humidity of the measurement (%),span deviation,mass concentration of particles derived from Lorenz-Mie calculation of OPC scattering (μg/m³),mass concentration of particles derived from Lorenz-Mie calculation of OPC scattering (μg/m³),mass concentration of particles derived from Lorenz-Mie calculation of OPC scattering (μg/m³)
DateTimeUTC,F1_M11,P_M11,Q1_M11,Q2_M11,T1_M11,T2_M11,T3_M11,T4_M11,T5_M11,U1_M11,ZSPAN_M11,X2_M11,X0_M11,X1_M11
2024-03-28 03:00:00,SystemResetWarning,0827.9,5.00,000.00,018.3,017.3,000.0,027.0,020.0,14.3,0000.0,0001.34,0003.87,0000.93
2024-03-28 03:01:00,SystemResetWarning,0827.9,5.00,000.00,018.3,017.3,000.0,027.0,020.0,14.3,0000.0,0001.35,0003.58,0000.93
2024-03-28 03:02:00,SystemResetWarning,0827.8,5.01,000.00,018.3,017.3,000.0,027.0,020.0,14.1,0000.0,0001.37,0003.32,0000.93
2024-03-28 03:03:00,SystemResetWarning,0827.8,5.00,000.00,018.3,017.3,000.0,027.0,020.0,14.3,0000.0,0001.36,0003.42,0000.92
2024-03-28 03:04:00,SystemResetWarning,0827.9,4.99,000.00,018.3,017.3,000.0,027.0,020.0,14.4,0000.0,0001.31,0004.09,0000.90
2024-03-28 03:05:00,SystemResetWarning,0827.9,5.00,000.00,018.3,017.3,000.0,027.0,020.0,14.4,0000.0,0001.29,0003.89,0000.89
2024-03-28 03:06:00,SystemResetWarning,0827.9,5.00,000.00,018.3,017.3,000.0,027.0,020.0,14.3,0000.0,0001.31,0004.77,0000.89
2024-03-28 03:07:00,SystemResetWarning,0827.8,4.99,000.00,018.3,017.3,000.0,027.0,020.0,14.3,0000.0,0001.29,0004.81,0000.88
2024-03-28 03:08:00,SystemResetWarning,0827.8,5.01,000.00,018.3,017.3,000.0,027.0,020.0,14.1,0000.0,0001.32,0004.93,0000.88
2024-03-28 03:09:00,SystemResetWarning,0827.8,5.01,000.00,018.3,017.3,000.0,027.0,020.0,14.3,0000.0,0001.30,0004.93,0000.86
2024-03-28 03:10:00,SystemResetWarning,0827.8,5.01,000.00,018.3,017.3,000.0,027.0,020.0,14.3,0000.0,0001.28,0004.90,0000.85
2024-03-28 03:11:00,SystemResetWarning,0827.9,5.00,000.00,018.3,017.3,000.0,027.0,020.0,14.2,0000.0,0001.27,0004.84,0000.85
2024-03-28 03:12:00,SystemResetWarning,0828.1,5.00,000.00,018.3,017.4,000.0,027.0,020.0,14.3,0000.0,0001.27,0004.87,0000.84
2024-03-28 03:13:00,SystemResetWarning,0828.1,5.00,000.00,018.3,017.4,000.0,027.0,020.0,14.6,0000.0,0001.22,0004.80,0000.83
2024-03-28 03:14:00,SystemResetWarning,0828.1,5.00,000.00,018.3,017.4,000.0,026.9,020.0,14.3,0000.0,0001.29,0005.10,0000.84
2024-03-28 03:15:00,SystemResetWarning,0828.1,4.99,000.00,018.3,017.4,000.0,026.9,020.0,14.4,0000.0,0001.31,0004.13,0000.86
2024-03-28 03:16:00,SystemResetWarning,0828.1,5.00,000.00,018.3,017.5,000.0,026.9,020.0,14.2,0000.0,0001.33,0003.85,0000.86
2024-03-28 03:17:00,SystemResetWarning,0828.1,5.00,000.00,018.3,017.4,000.0,026.9,020.0,14.3,0000.0,0001.31,0003.01,0000.86
2024-03-28 03:18:00,SystemResetWarning,0828.1,4.99,000.00,018.3,017.4,000.0,026.9,020.0,14.5,0000.0,0001.32,0003.00,0000.86
2024-03-28 03:19:00,SystemResetWarning,0828.0,5.00,000.00,018.3,017.4,000.0,026.9,020.0,14.7,0000.0,0001.31,0002.93,0000.86
2024-03-28 03:20:00,SystemResetWarning,0828.1,5.00,000.00,018.3,017.4,000.0,026.9,020.0,14.7,0000.0,0001.33,0002.90,0000.87
2024-03-28 03:21:00,SystemResetWarning,0828.1,5.01,000.00,018.3,017.4,000.0,026.9,020.0,14.6,0000.0,0001.39,0003.22,0000.88
2024-03-28 03:22:00,SystemResetWarning,0828.1,5.01,000.00,018.3,017.4,000.0,026.9,020.0,14.1,0000.0,0001.40,0003.40,0000.88
2024-03-28 03:23:00,SystemResetWarning,0828.1,5.00,000.00,018.3,017.4,000.0,026.9,020.0,14.3,0000.0,0001.43,0003.48,0000.88
2024-03-28 03:24:00,SystemResetWarning,0828.1,5.00,000.00,018.3,017.4,000.0,026.9,020.0,14.4,0000.0,0001.45,0003.47,0000.89
2024-03-28 03:25:00,SystemResetWarning,0828.0,5.00,000.00,018.3,017.4,000.0,026.9,020.0,14.2,0000.0,0001.40,0003.18,0000.89
2024-03-28 03:26:00,SystemResetWarning,0828.0,5.00,000.00,018.3,017.4,000.0,026.9,020.0,14.2,0000.0,0001.38,0003.00,0000.89
2024-03-28 03:27:00,SystemResetWarning,0828.1,5.00,000.00,018.3,017.4,000.0,026.9,020.0,14.1,0000.0,0001.35,0002.97,0000.89
2024-03-28 03:28:00,SystemResetWarning,0828.0,5.00,000.00,018.3,017.4,000.0,026.9,020.0,14.1,0000.0,0001.35,0002.88,0000.90
2024-03-28 03:29:00,SystemResetWarning,0828.0,4.99,000.00,018.3,017.4,000.0,026.9,020.0,14.0,0000.0,0001.31,0002.63,0000.90
2024-03-28 03:30:00,SystemResetWarning,0827.8,5.00,000.00,018.3,017.5,000.0,026.9,020.0,14.2,0000.0,0001.33,0003.08,0000.91
2024-03-28 03:31:00,SystemResetWarning,0827.8,5.00,000.00,018.3,017.5,000.0,026.9,020.0,14.3,0000.0,0001.34,0003.18,0000.91
2024-03-28 03:32:00,SystemResetWarning,0827.8,5.00,000.00,018.3,017.5,000.0,026.9,020.0,14.4,0000.0,0001.31,0003.36,0000.91
2024-03-28 03:33:00,SystemResetWarning,0827.8,5.01,000.00,018.3,017.5,000.0,026.9,020.0,14.3,0000.0,0001.29,0003.17,0000.92
2024-03-28 03:34:00,SystemResetWarning,0827.8,5.00,000.00,018.3,017.5,000.0,026.9,020.0,14.4,0000.0,0001.27,0003.03,0000.94
2024-03-28 03:35:00,SystemResetWarning,0827.7,5.00,000.00,018.3,017.5,000.0,026.9,020.0,14.4,0000.0,0001.28,0003.07,0000.95
2024-03-28 03:36:00,SystemResetWarning,0827.7,5.00,000.00,018.3,017.5,000.0,026.9,020.0,14.6,0000.0,0001.29,0003.04,0000.95
2024-03-28 03:37:00,SystemResetWarning,0827.8,5.00,000.00,018.3,017.5,000.0,026.9,020.0,14.5,0000.0,0001.34,0003.19,0000.97
2024-03-28 03:38:00,SystemResetWarning,0827.8,4.99,000.00,018.3,017.5,000.0,026.9,020.0,14.4,0000.0,0001.39,0004.25,0000.99
2024-03-28 03:39:00,SystemResetWarning,0827.8,5.00,000.00,018.3,017.4,000.0,026.9,020.0,14.5,0000.0,0001.42,0004.31,0001.00
2024-03-28 03:40:00,SystemResetWarning,0827.7,5.00,000.00,018.3,017.4,000.0,026.9,020.0,14.7,0000.0,0001.46,0004.37,0001.02
2024-03-28 03:41:00,SystemResetWarning,0827.8,5.00,000.00,018.3,017.4,000.0,026.9,020.0,14.5,0000.0,0001.45,0004.68,0001.02
2024-03-28 03:42:00,SystemResetWarning,0827.8,5.00,000.00,018.3,017.4,000.0,026.9,020.0,14.4,0000.0,0001.46,0004.77,0001.02
2024-03-28 03:43:00,SystemResetWarning,0827.8,5.00,000.00,018.3,017.4,000.0,026.9,020.0,14.5,0000.0,0001.47,0004.49,0001.02
2024-03-28 03:44:00,SystemResetWarning,0827.7,5.00,000.00,018.2,017.4,000.0,026.9,020.0,14.2,0000.0,0001.48,0004.46,0001.04
2024-03-28 03:45:00,SystemResetWarning,0827.7,5.00,000.00,018.2,017.4,000.0,026.9,020.0,14.2,0000.0,0001.50,0004.51,0001.03
2024-03-28 03:46:00,SystemResetWarning,0827.7,5.01,000.00,018.2,017.4,000.0,026.9,020.0,14.4,0000.0,0001.53,0004.52,0001.04
2024-03-28 03:47:00,SystemResetWarning,0827.8,5.00,000.00,018.2,017.4,000.0,026.9,020.0,14.6,0000.0,0001.53,0004.47,0001.05
2024-03-28 03:48:00,SystemResetWarning,0827.8,5.00,000.00,018.2,017.4,000.0,026.9,020.0,14.7,0000.0,0001.53,0004.37,0001.05
2024-03-28 03:49:00,SystemResetWarning,0827.8,5.00,000.00,018.2,017.4,000.0,026.9,020.0,14.4,0000.0,0001.50,0003.30,0001.05
2024-03-28 03:50:00,SystemResetWarning,0827.8,5.00,000.00,018.2,017.4,000.0,026.9,020.0,14.4,0000.0,0001.52,0003.38,0001.05
2024-03-28 03:51:00,SystemResetWarning,0827.8,4.99,000.00,018.2,017.4,000.0,026.9,020.0,14.4,0000.0,0001.57,0003.60,0001.04
2024-03-28 03:52:00,SystemResetWarning,0827.8,5.00,000.00,018.2,017.3,000.0,026.9,020.0,14.4,0000.0,0001.57,0002.89,0001.04
2024-03-28 03:53:00,SystemResetWarning,0827.7,5.00,000.00,018.2,017.3,000.0,026.9,020.0,14.3,0000.0,0001.56,0002.84,0001.05
2024-03-28 03:54:00,SystemResetWarning,0827.7,5.00,000.00,018.2,017.3,000.0,026.9,020.0,14.2,0000.0,0001.58,0002.82,0001.06
2024-03-28 03:55:00,SystemResetWarning,0827.7,5.00,000.00,018.2,017.3,000.0,026.9,020.0,14.3,0000.0,0001.57,0002.86,0001.06
2024-03-28 03:56:00,SystemResetWarning,0827.7,5.00,000.00,018.2,017.3,000.0,026.9,020.0,14.2,0000.0,0001.58,0002.90,0001.06
2024-03-28 03:57:00,SystemResetWarning,0827.6,5.00,000.00,018.2,017.3,000.0,026.9,020.0,14.0,0000.0,0001.59,0003.29,0001.07
2024-03-28 03:58:00,SystemResetWarning,0827.7,5.00,000.00,018.2,017.3,000.0,026.9,020.0,13.8,0000.0,0001.67,0004.04,0001.09
2024-03-28 03:59:00,SystemResetWarning,0827.7,5.00,000.00,018.2,017.3,000.0,026.9,020.0,13.9,0000.0,0001.69,0004.16,0001.09
